14.10.16 00:00:08: Y , 81,  0.0
14.10.16 00:00:18: Y , 81,  0.0
14.10.16 00:00:29: Y , 81,  0.0
14.10.16 00:00:40: Y , 81,  0.0
14.10.16 00:00:50: Y , 81,  0.0
14.10.16 00:01:01: Y , 81,  0.0
14.10.16 00:01:11: Y , 80,  0.0
14.10.16 00:01:22: Y , 80,  0.0
14.10.16 00:01:32: Y , 81,  0.0
14.10.16 00:01:43: Y , 80,  0.0
14.10.16 00:01:53: Y , 79,  0.0
14.10.16 00:02:04: Y , 80,  0.0
14.10.16 00:02:14: Y , 80,  0.0
14.10.16 00:02:25: Y , 80,  0.0
14.10.16 00:02:35: Y , 80,  0.0
14.10.16 00:02:46: Y , 80,  0.0
14.10.16 00:02:57: Y , 80,  0.0
14.10.16 00:03:07: Y , 80,  0.0
14.10.16 00:03:18: Y , 79,  0.0
14.10.16 00:03:28: Y , 77,  0.0
14.10.16 00:03:39: Y , 77,  0.0
14.10.16 00:03:49: Y , 76,  0.0
14.10.16 00:04:00: Y , 79,  0.0
14.10.16 00:04:10: Y , 79,  0.0
14.10.16 00:04:21: Y , 79,  0.0
14.10.16 00:04:31: Y , 79,  0.0
14.10.16 00:04:42: Y , 79,  0.0
14.10.16 00:04:52: Y , 79,  0.0
14.10.16 00:05:03: Y , 79,  0.0
14.10.16 00:05:13: Y , 77,  0.0
14.10.16 00:05:24: Y , 77,  0.0
14.10.16 00:05:35: Y , 77,  0.0
14.10.16 00:05:45: Y , 77,  0.0
14.10.16 00:05:56: Y , 77,  0.0
14.10.16 00:06:06: Y , 76,  0.0
14.10.16 00:06:17: Y , 76,  0.0
14.10.16 00:06:27: Y , 75,  0.0
14.10.16 00:06:38: Y , 75,  0.0
14.10.16 00:06:48: Y , 75,  0.0
14.10.16 00:06:59: Y , 75,  0.0
14.10.16 00:07:09: Y , 75,  0.0
14.10.16 00:07:20: Y , 75,  0.0
14.10.16 00:07:30: Y , 75,  0.0
14.10.16 00:07:41: Y , 75,  0.0
14.10.16 00:07:52: Y , 75,  0.0
14.10.16 00:08:02: Y , 75,  0.0
14.10.16 00:08:13: Y , 75,  0.0
14.10.16 00:08:23: Y , 75,  0.0
14.10.16 00:08:34: Y , 75,  0.0
14.10.16 00:08:44: Y , 75,  0.0
14.10.16 00:08:55: Y , 75,  0.0
14.10.16 00:09:05: Y , 75,  0.0
14.10.16 00:09:16: Y , 75,  0.0
14.10.16 00:09:26: Y , 75,  0.0
14.10.16 00:09:37: Y , 74,  0.0
14.10.16 00:09:47: Y , 75,  0.0
14.10.16 00:09:58: Y , 74,  0.0
14.10.16 00:10:08: Y , 74,  0.0
14.10.16 00:10:19: Y , 74,  0.0
14.10.16 00:10:30: Y , 74,  0.0
14.10.16 00:10:40: Y , 74,  0.0
14.10.16 00:10:51: Y , 74,  0.0
14.10.16 00:11:01: Y , 72,  0.0
14.10.16 00:11:12: Y , 74,  0.0
14.10.16 00:11:22: Y , 74,  0.0
14.10.16 00:11:33: Y , 74,  0.0
14.10.16 00:11:43: Y , 74,  0.0
14.10.16 00:11:54: Y , 72,  0.0
14.10.16 00:12:04: Y , 74,  0.0
14.10.16 00:12:15: Y , 74,  0.0
14.10.16 00:12:25: Y , 74,  0.0
14.10.16 00:12:36: Y , 74,  0.0
14.10.16 00:12:47: Y , 74,  0.0
14.10.16 00:12:57: Y , 74,  0.0
14.10.16 00:13:08: Y , 74,  0.0
14.10.16 00:13:18: Y , 74,  0.0
14.10.16 00:13:29: Y , 74,  0.0
14.10.16 00:13:39: Y , 75,  0.0
14.10.16 00:13:50: Y , 75,  0.0
14.10.16 00:14:00: Y , 75,  0.0
14.10.16 00:14:11: Y , 75,  0.0
14.10.16 00:14:21: Y , 75,  0.0
14.10.16 00:14:32: Y , 75,  0.0
14.10.16 00:14:42: Y , 75,  0.0
14.10.16 00:14:53: Y , 75,  0.0
14.10.16 00:15:04: Y , 75,  0.0
14.10.16 00:15:14: Y , 75,  0.0
14.10.16 00:15:25: Y , 75,  0.0
14.10.16 00:15:35: Y , 75,  0.0
14.10.16 00:15:46: Y , 75,  0.0
14.10.16 00:15:56: Y , 75,  0.0
14.10.16 00:16:07: Y , 75,  0.0
14.10.16 00:16:17: Y , 75,  0.0
14.10.16 00:16:28: Y , 75,  0.0
14.10.16 00:16:38: Y , 75,  0.0
14.10.16 00:16:49: Y , 75,  0.0
14.10.16 00:16:59: Y , 75,  0.0
14.10.16 00:17:10: Y , 75,  0.0
14.10.16 00:17:20: Y , 75,  0.0
14.10.16 00:17:31: Y , 75,  0.0
14.10.16 00:17:42: Y , 75,  0.0
14.10.16 00:17:52: Y , 75,  0.0
14.10.16 00:18:03: Y , 75,  0.0
14.10.16 00:18:13: Y , 75,  0.0
14.10.16 00:18:24: Y , 76,  0.0
14.10.16 00:18:34: Y , 75,  0.0
14.10.16 00:18:45: Y , 75,  0.0
14.10.16 00:18:55: Y , 75,  0.0
14.10.16 00:19:06: Y , 75,  0.0
14.10.16 00:19:16: Y , 76,  0.0
14.10.16 00:19:27: Y , 75,  0.0
14.10.16 00:19:37: Y , 75,  0.0
14.10.16 00:19:48: Y , 75,  0.0
14.10.16 00:19:59: Y , 75,  0.0
14.10.16 00:20:09: Y , 75,  0.0
14.10.16 00:20:20: Y , 75,  0.0
14.10.16 00:20:30: Y , 75,  0.0
14.10.16 00:20:41: Y , 76,  0.0
14.10.16 00:20:51: Y , 76,  0.0
14.10.16 00:21:02: Y , 76,  0.0
14.10.16 00:21:12: Y , 76,  0.0
14.10.16 00:21:23: Y , 76,  0.0
14.10.16 00:21:33: Y , 76,  0.0
14.10.16 00:21:44: Y , 76,  0.0
14.10.16 00:21:54: Y , 76,  0.0
14.10.16 00:22:05: Y , 75,  0.0
14.10.16 00:22:16: Y , 75,  0.0
14.10.16 00:22:26: Y , 75,  0.0
14.10.16 00:22:37: Y , 75,  0.0
14.10.16 00:22:47: Y , 75,  0.0
14.10.16 00:22:58: Y , 75,  0.0
14.10.16 00:23:08: Y , 75,  0.0
14.10.16 00:23:19: Y , 75,  0.0
14.10.16 00:23:29: Y , 75,  0.0
14.10.16 00:23:40: Y , 75,  0.0
14.10.16 00:23:50: Y , 75,  0.0
14.10.16 00:24:01: Y , 75,  0.0
14.10.16 00:24:11: Y , 75,  0.0
14.10.16 00:24:22: Y , 75,  0.0
14.10.16 00:24:32: Y , 75,  0.0
14.10.16 00:24:43: Y , 74,  0.0
14.10.16 00:24:54: Y , 74,  0.0
14.10.16 00:25:15: Y , 75,  0.0
14.10.16 00:25:25: Y , 75,  0.0
14.10.16 00:25:36: Y , 76,  0.0
14.10.16 00:25:46: Y , 75,  0.0
14.10.16 00:25:57: Y , 75,  0.0
14.10.16 00:26:07: Y , 75,  0.0
14.10.16 00:26:18: Y , 75,  0.0
14.10.16 00:26:28: Y , 75,  0.0
14.10.16 00:26:39: Y , 76,  0.0
14.10.16 00:26:49: Y , 75,  0.0
14.10.16 00:27:00: Y , 75,  0.0
14.10.16 00:27:11: Y , 75,  0.0
14.10.16 00:27:21: Y , 75,  0.0
14.10.16 00:27:32: Y , 75,  0.0
14.10.16 00:27:42: Y , 75,  0.0
14.10.16 00:27:53: Y , 75,  0.0
14.10.16 00:28:03: Y , 75,  0.0
14.10.16 00:28:14: Y , 74,  0.0
14.10.16 00:28:24: Y , 74,  0.0
14.10.16 00:28:35: Y , 74,  0.0
14.10.16 00:28:45: Y , 74,  0.0
14.10.16 00:28:56: Y , 74,  0.0
14.10.16 00:29:06: Y , 74,  0.0
14.10.16 00:29:17: Y , 75,  0.0
14.10.16 00:29:28: Y , 75,  0.0
14.10.16 00:29:38: Y , 75,  0.0
14.10.16 00:29:49: Y , 75,  0.0
14.10.16 00:29:59: Y , 75,  0.0
14.10.16 00:30:10: Y , 75,  0.0
14.10.16 00:30:20: Y , 75,  0.0
14.10.16 00:30:31: Y , 74,  0.0
14.10.16 00:30:41: Y , 74,  0.0
14.10.16 00:30:52: Y , 74,  0.0
14.10.16 00:31:02: Y , 74,  0.0
14.10.16 00:31:13: Y , 74,  0.0
14.10.16 00:31:23: Y , 74,  0.0
14.10.16 00:31:34: Y , 74,  0.0
14.10.16 00:31:44: Y , 72,  0.0
14.10.16 00:31:55: Y , 72,  0.0
14.10.16 00:32:06: Y , 72,  0.0
14.10.16 00:32:16: Y , 71,  0.0
14.10.16 00:32:27: Y , 72,  0.0
14.10.16 00:32:37: Y , 71,  0.0
14.10.16 00:32:48: Y , 71,  0.0
14.10.16 00:32:58: Y , 71,  0.0
14.10.16 00:33:09: Y , 71,  0.0
14.10.16 00:33:19: Y , 71,  0.0
14.10.16 00:33:30: Y , 71,  0.0
14.10.16 00:33:40: Y , 70,  0.0
14.10.16 00:33:51: Y , 70,  0.0
14.10.16 00:34:01: Y , 71,  0.0
14.10.16 00:34:12: Y , 70,  0.0
14.10.16 00:34:23: Y , 70,  0.0
14.10.16 00:34:33: Y , 70,  0.0
14.10.16 00:34:44: Y , 71,  0.0
14.10.16 00:34:54: Y , 70,  0.0
14.10.16 00:35:05: Y , 70,  0.0
14.10.16 00:35:15: Y , 71,  0.0
14.10.16 00:35:26: Y , 70,  0.0
14.10.16 00:35:36: Y , 71,  0.0
14.10.16 00:35:47: Y , 71,  0.0
14.10.16 00:35:57: Y , 71,  0.0
14.10.16 00:36:08: Y , 71,  0.0
14.10.16 00:36:18: Y , 71,  0.0
14.10.16 00:36:29: Y , 71,  0.0
14.10.16 00:36:40: Y , 71,  0.0
14.10.16 00:36:50: Y , 72,  0.0
14.10.16 00:37:01: Y , 71,  0.0
14.10.16 00:37:11: Y , 71,  0.0
14.10.16 00:37:22: Y , 71,  0.0
14.10.16 00:37:32: Y , 71,  0.0
14.10.16 00:37:43: Y , 72,  0.0
14.10.16 00:37:53: Y , 72,  0.0
14.10.16 00:38:04: Y , 72,  0.0
14.10.16 00:38:14: Y , 72,  0.0
14.10.16 00:38:25: Y , 72,  0.0
14.10.16 00:38:35: Y , 72,  0.0
14.10.16 00:38:46: Y , 77,  0.0
14.10.16 00:38:56: Y , 77,  0.0
14.10.16 00:39:07: Y , 77,  0.0
14.10.16 00:39:18: Y , 77,  0.0
14.10.16 00:39:28: Y , 79,  0.0
14.10.16 00:39:39: Y , 79,  0.0
14.10.16 00:39:49: Y , 79,  0.0
14.10.16 00:40:00: Y , 79,  0.0
14.10.16 00:40:10: Y , 77,  0.0
14.10.16 00:40:21: Y , 77,  0.0
14.10.16 00:40:31: Y , 77,  0.0
14.10.16 00:40:42: Y , 77,  0.0
14.10.16 00:40:52: Y , 77,  0.0
14.10.16 00:41:03: Y , 76,  0.0
14.10.16 00:41:13: Y , 76,  0.0
14.10.16 00:41:24: Y , 76,  0.0
14.10.16 00:41:35: Y , 77,  0.0
14.10.16 00:41:45: Y , 76,  0.0
14.10.16 00:41:56: Y , 76,  0.0
14.10.16 00:42:06: Y , 77,  0.0
14.10.16 00:42:17: Y , 76,  0.0
14.10.16 00:42:27: Y , 76,  0.0
14.10.16 00:42:38: Y , 76,  0.0
14.10.16 00:42:48: Y , 76,  0.0
14.10.16 00:42:59: Y , 76,  0.0
14.10.16 00:43:09: Y , 77,  0.0
14.10.16 00:43:20: Y , 77,  0.0
14.10.16 00:43:30: Y , 77,  0.0
14.10.16 00:43:41: Y , 77,  0.0
14.10.16 00:43:52: Y , 77,  0.0
14.10.16 00:44:02: Y , 77,  0.0
14.10.16 00:44:13: Y , 77,  0.0
14.10.16 00:44:23: Y , 77,  0.0
14.10.16 00:44:34: Y , 77,  0.0
14.10.16 00:44:44: Y , 71,  0.0
14.10.16 00:44:55: Y , 70,  0.0
14.10.16 00:45:05: Y , 70,  0.0
14.10.16 00:45:16: Y , 70,  0.0
14.10.16 00:45:26: Y , 70,  0.0
14.10.16 00:45:37: Y , 70,  0.0
14.10.16 00:45:47: Y , 70,  0.0
14.10.16 00:45:58: Y , 70,  0.0
14.10.16 00:46:08: Y , 70,  0.0
14.10.16 00:46:19: Y , 70,  0.0
14.10.16 00:46:30: Y , 71,  0.0
14.10.16 00:46:40: Y , 71,  0.0
14.10.16 00:46:51: Y , 71,  0.0
14.10.16 00:47:01: Y , 71,  0.0
14.10.16 00:47:12: Y , 72,  0.0
14.10.16 00:47:22: Y , 72,  0.0
14.10.16 00:47:33: Y , 72,  0.0
14.10.16 00:47:43: Y , 72,  0.0
14.10.16 00:47:54: Y , 72,  0.0
14.10.16 00:48:04: Y , 72,  0.0
14.10.16 00:48:15: Y , 72,  0.0
14.10.16 00:48:25: Y , 72,  0.0
14.10.16 00:48:36: Y , 72,  0.0
14.10.16 00:48:47: Y , 72,  0.0
14.10.16 00:48:57: Y , 72,  0.0
14.10.16 00:49:08: Y , 72,  0.0
14.10.16 00:49:18: Y , 72,  0.0
14.10.16 00:49:29: Y , 72,  0.0
14.10.16 00:49:39: Y , 71,  0.0
14.10.16 00:49:50: Y , 71,  0.0
14.10.16 00:50:00: Y , 71,  0.0
14.10.16 00:50:11: Y , 72,  0.0
14.10.16 00:50:21: Y , 72,  0.0
14.10.16 00:50:32: Y , 72,  0.0
14.10.16 00:50:42: Y , 72,  0.0
14.10.16 00:50:53: Y , 72,  0.0
14.10.16 00:51:04: Y , 72,  0.0
14.10.16 00:51:14: Y , 72,  0.0
14.10.16 00:51:25: Y , 72,  0.0
14.10.16 00:51:35: Y , 71,  0.0
14.10.16 00:51:46: Y , 71,  0.0
14.10.16 00:51:56: Y , 71,  0.0
14.10.16 00:52:07: Y , 70,  0.0
14.10.16 00:52:17: Y , 70,  0.0
14.10.16 00:52:28: Y , 70,  0.0
14.10.16 00:52:38: Y , 71,  0.0
14.10.16 00:52:49: Y , 71,  0.0
14.10.16 00:52:59: Y , 71,  0.0
14.10.16 00:53:10: Y , 74,  0.0
14.10.16 00:53:20: Y , 74,  0.0
14.10.16 00:53:31: Y , 72,  0.0
14.10.16 00:53:42: Y , 72,  0.0
14.10.16 00:53:52: Y , 72,  0.0
14.10.16 00:54:03: Y , 72,  0.0
14.10.16 00:54:13: Y , 71,  0.0
14.10.16 00:54:24: Y , 71,  0.0
14.10.16 00:54:34: Y , 72,  0.0
14.10.16 00:54:45: Y , 71,  0.0
14.10.16 00:54:55: Y , 71,  0.0
14.10.16 00:55:06: Y , 71,  0.0
14.10.16 00:55:16: Y , 71,  0.0
14.10.16 00:55:27: Y , 70,  0.0
14.10.16 00:55:37: Y , 70,  0.0
14.10.16 00:55:48: Y , 70,  0.0
14.10.16 00:56:09: Y , 70,  0.0
14.10.16 00:56:20: Y , 70,  0.0
14.10.16 00:56:30: Y , 71,  0.0
14.10.16 00:56:41: Y , 71,  0.0
14.10.16 00:56:51: Y , 71,  0.0
14.10.16 00:57:02: Y , 72,  0.0
14.10.16 00:57:12: Y , 72,  0.0
14.10.16 00:57:23: Y , 72,  0.0
14.10.16 00:57:33: Y , 72,  0.0
14.10.16 00:57:44: Y , 72,  0.0
14.10.16 00:57:54: Y , 71,  0.0
14.10.16 00:58:05: Y , 71,  0.0
14.10.16 00:58:16: Y , 72,  0.0
14.10.16 00:58:26: Y , 74,  0.0
14.10.16 00:58:37: Y , 72,  0.0
14.10.16 00:58:47: Y , 74,  0.0
14.10.16 00:58:58: Y , 72,  0.0
14.10.16 00:59:08: Y , 72,  0.0
14.10.16 00:59:19: Y , 72,  0.0
14.10.16 00:59:29: Y , 71,  0.0
14.10.16 00:59:40: Y , 71,  0.0
14.10.16 00:59:50: Y , 70,  0.0
14.10.16 01:00:01: Y , 70,  0.0
14.10.16 01:00:11: Y , 70,  0.0
14.10.16 01:00:22: Y , 70,  0.0
14.10.16 01:00:32: Y , 68,  0.0
14.10.16 01:00:43: Y , 68,  0.0
14.10.16 01:00:54: Y , 67,  0.0
14.10.16 01:01:04: Y , 67,  0.0
14.10.16 01:01:15: Y , 67,  0.0
14.10.16 01:01:25: Y , 67,  0.0
14.10.16 01:01:36: Y , 66,  0.0
14.10.16 01:01:46: Y , 66,  0.0
14.10.16 01:01:57: Y , 67,  0.0
14.10.16 01:02:07: Y , 67,  0.0
14.10.16 01:02:18: Y , 67,  0.0
14.10.16 01:02:28: Y , 66,  0.0
14.10.16 01:02:39: Y , 66,  0.0
14.10.16 01:02:49: Y , 66,  0.0
14.10.16 01:03:00: Y , 66,  0.0
14.10.16 01:03:11: Y , 66,  0.0
14.10.16 01:03:21: Y , 66,  0.0
14.10.16 01:03:32: Y , 66,  0.0
14.10.16 01:03:42: Y , 66,  0.0
14.10.16 01:03:53: Y , 64,  0.0
14.10.16 01:04:03: Y , 64,  0.0
14.10.16 01:04:14: Y , 63,  0.0
14.10.16 01:04:24: Y , 63,  0.0
14.10.16 01:04:35: Y , 62,  0.0
14.10.16 01:04:45: Y , 59,  0.0
14.10.16 01:04:56: Y , 59,  0.0
14.10.16 01:05:06: Y , 56,  0.0
14.10.16 01:05:17: Y , 56,  0.0
14.10.16 01:05:27: Y , 55,  0.0
14.10.16 01:05:38: Y , 55,  0.0
14.10.16 01:05:49: Y , 55,  0.0
14.10.16 01:05:59: Y , 54,  0.0
14.10.16 01:06:10: Y , 52,  0.0
14.10.16 01:06:20: Y , 51,  0.0
14.10.16 01:06:31: Y , 51,  0.0
14.10.16 01:06:41: Y , 50,  0.0
14.10.16 01:06:52: Y , 50,  0.0
14.10.16 01:07:02: Y , 50,  0.0
14.10.16 01:07:13: Y , 51,  0.0
14.10.16 01:07:23: Y , 50,  0.0
14.10.16 01:07:34: Y , 48,  0.0
14.10.16 01:07:44: Y , 47,  0.0
14.10.16 01:07:55: Y , 47,  0.0
14.10.16 01:08:06: Y , 47,  0.0
14.10.16 01:08:16: Y , 47,  0.0
14.10.16 01:08:27: Y , 47,  0.0
14.10.16 01:08:37: Y , 47,  0.0
14.10.16 01:08:48: Y , 46,  0.0
14.10.16 01:08:58: Y , 45,  0.0
14.10.16 01:09:09: Y , 45,  0.0
14.10.16 01:09:19: Y , 45,  0.0
14.10.16 01:09:30: Y , 45,  0.0
14.10.16 01:09:40: Y , 45,  0.0
14.10.16 01:09:51: Y , 43,  0.0
14.10.16 01:10:01: Y , 43,  0.0
14.10.16 01:10:12: Y , 42,  0.0
14.10.16 01:10:23: Y , 41,  0.0
14.10.16 01:10:33: Y , 41,  0.0
14.10.16 01:10:44: Y , 39,  0.0
14.10.16 01:10:54: Y , 39,  0.0
14.10.16 01:11:05: Y , 38,  0.0
14.10.16 01:11:15: Y , 37,  0.0
14.10.16 01:11:26: Y , 35,  0.0
14.10.16 01:11:36: Y , 34,  0.0
14.10.16 01:11:47: Y , 35,  0.0
14.10.16 01:11:57: Y , 34,  0.0
14.10.16 01:12:08: Y , 33,  0.0
14.10.16 01:12:18: Y , 33,  0.0
14.10.16 01:12:29: Y , 31,  0.0
14.10.16 01:12:40: Y , 31,  0.0
14.10.16 01:12:50: Y , 31,  0.0
14.10.16 01:13:01: Y , 30,  0.0
14.10.16 01:13:11: Y , 30,  0.0
14.10.16 01:13:22: Y , 29,  0.0
14.10.16 01:13:32: Y , 27,  0.0
14.10.16 01:13:43: Y , 26,  0.0
14.10.16 01:13:53: Y , 26,  0.0
14.10.16 01:14:04: Y , 26,  0.0
14.10.16 01:14:14: Y , 25,  0.0
14.10.16 01:14:25: Y , 23,  0.0
14.10.16 01:14:35: Y , 22,  0.0
14.10.16 01:14:46: Y , 21,  0.0
14.10.16 01:14:56: Y , 19,  0.0
14.10.16 01:15:07: Y , 18,  0.0
14.10.16 01:15:18: Y , 17,  0.0
14.10.16 01:15:28: Y , 14,  0.0
14.10.16 01:15:39: Y , 12,  0.0
14.10.16 01:15:49: Y , 10,  0.0
14.10.16 01:16:00: Y , 8,  0.0
14.10.16 01:16:10: Y , 5,  0.0
14.10.16 01:16:21: Y , 4,  0.0
14.10.16 01:16:31: Y , 1,  0.0
14.10.16 01:16:42: Y , -2,  0.0
14.10.16 01:16:52: Y , -6,  0.0
14.10.16 01:17:03: Y , -10,  0.0
14.10.16 01:17:13: Y , -7,  0.0
14.10.16 01:17:24: Y , -7,  0.0
14.10.16 01:17:35: Y , -10,  0.0
14.10.16 01:17:45: Y , -12,  0.0
14.10.16 01:17:56: Y , -15,  0.0
14.10.16 01:18:06: Y , -16,  0.0
14.10.16 01:18:17: Y , -19,  0.0
14.10.16 01:18:27: Y , -20,  0.0
14.10.16 01:18:38: Y , -23,  0.0
14.10.16 01:18:48: Y , -25,  0.0
14.10.16 01:18:59: Y , -28,  0.0
14.10.16 01:19:09: Y , -29,  0.0
14.10.16 01:19:20: Y , -31,  0.0
14.10.16 01:19:30: Y , -32,  0.0
14.10.16 01:19:41: Y , -33,  0.0
14.10.16 01:19:51: Y , -35,  0.0
14.10.16 01:20:02: Y , -36,  0.0
14.10.16 01:20:13: Y , -36,  0.0
14.10.16 01:20:23: Y , -36,  0.0
14.10.16 01:20:34: Y , -36,  0.0
14.10.16 01:20:44: Y , -36,  0.0
14.10.16 01:20:55: Y , -36,  0.0
14.10.16 01:21:05: Y , -36,  0.0
14.10.16 01:21:16: Y , -36,  0.0
14.10.16 01:21:26: Y , -36,  0.0
14.10.16 01:21:37: Y , -35,  0.0
14.10.16 01:21:47: Y , -36,  0.0
14.10.16 01:21:58: Y , -37,  0.0
14.10.16 01:22:08: Y , -37,  0.0
14.10.16 01:22:19: Y , -37,  0.0
14.10.16 01:22:30: Y , -38,  0.0
14.10.16 01:22:40: Y , -38,  0.0
14.10.16 01:22:51: Y , -40,  0.0
14.10.16 01:23:01: Y , -41,  0.0
14.10.16 01:23:12: Y , -41,  0.0
14.10.16 01:23:22: Y , -42,  0.0
14.10.16 01:23:33: Y , -42,  0.0
14.10.16 01:23:43: Y , -42,  0.0
14.10.16 01:23:54: Y , -44,  0.0
14.10.16 01:24:04: Y , -42,  0.0
14.10.16 01:24:15: Y , -42,  0.0
14.10.16 01:24:25: Y , -42,  0.0
14.10.16 01:24:36: Y , -42,  0.0
14.10.16 01:24:46: Y , -44,  0.0
14.10.16 01:24:57: Y , -45,  0.0
14.10.16 01:25:08: Y , -45,  0.0
14.10.16 01:25:18: Y , -46,  0.0
14.10.16 01:25:29: Y , -46,  0.0
14.10.16 01:25:39: Y , -48,  0.0
14.10.16 01:25:50: Y , -48,  0.0
14.10.16 01:26:00: Y , -48,  0.0
14.10.16 01:26:11: Y , -48,  0.0
14.10.16 01:26:21: Y , -48,  0.0
14.10.16 01:26:32: Y , -46,  0.0
14.10.16 01:26:42: Y , -45,  0.0
14.10.16 01:27:04: Y , -45,  0.0
14.10.16 01:27:14: Y , -45,  0.0
14.10.16 01:27:25: Y , -45,  0.0
14.10.16 01:27:35: Y , -45,  0.0
14.10.16 01:27:46: Y , -45,  0.0
14.10.16 01:27:56: Y , -45,  0.0
14.10.16 01:28:07: Y , -45,  0.0
14.10.16 01:28:17: Y , -45,  0.0
14.10.16 01:28:28: Y , -46,  0.0
14.10.16 01:28:38: Y , -45,  0.0
14.10.16 01:28:49: Y , -46,  0.0
14.10.16 01:28:59: Y , -45,  0.0
14.10.16 01:29:10: Y , -45,  0.0
14.10.16 01:29:20: Y , -45,  0.0
14.10.16 01:29:31: Y , -44,  0.0
14.10.16 01:29:42: Y , -44,  0.0
14.10.16 01:29:52: Y , -44,  0.0
14.10.16 01:30:03: Y , -44,  0.0
14.10.16 01:30:13: Y , -45,  0.0
14.10.16 01:30:24: Y , -44,  0.0
14.10.16 01:30:34: Y , -44,  0.0
14.10.16 01:30:45: Y , -42,  0.0
14.10.16 01:30:55: Y , -42,  0.0
14.10.16 01:31:06: Y , -41,  0.0
14.10.16 01:31:16: Y , -42,  0.0
14.10.16 01:31:27: Y , -42,  0.0
14.10.16 01:31:37: Y , -41,  0.0
14.10.16 01:31:48: Y , -41,  0.0
14.10.16 01:31:59: Y , -41,  0.0
14.10.16 01:32:09: Y , -40,  0.0
14.10.16 01:32:20: Y , -40,  0.0
14.10.16 01:32:30: Y , -40,  0.0
14.10.16 01:32:41: Y , -40,  0.0
14.10.16 01:32:51: Y , -38,  0.0
14.10.16 01:33:02: Y , -38,  0.0
14.10.16 01:33:12: Y , -38,  0.0
14.10.16 01:33:23: Y , -37,  0.0
14.10.16 01:33:33: Y , -37,  0.0
14.10.16 01:33:44: Y , -37,  0.0
14.10.16 01:33:54: Y , -36,  0.0
14.10.16 01:34:05: Y , -36,  0.0
14.10.16 01:34:15: Y , -36,  0.0
14.10.16 01:34:26: Y , -35,  0.0
14.10.16 01:34:37: Y , -35,  0.0
14.10.16 01:34:47: Y , -35,  0.0
14.10.16 01:34:58: Y , -35,  0.0
14.10.16 01:35:08: Y , -35,  0.0
14.10.16 01:35:19: Y , -35,  0.0
14.10.16 01:35:29: Y , -35,  0.0
14.10.16 01:35:40: Y , -35,  0.0
14.10.16 01:35:50: Y , -35,  0.0
14.10.16 01:36:01: Y , -36,  0.0
14.10.16 01:36:11: Y , -35,  0.0
14.10.16 01:36:22: Y , -35,  0.0
14.10.16 01:36:32: Y , -35,  0.0
14.10.16 01:36:43: Y , -35,  0.0
14.10.16 01:36:54: Y , -33,  0.0
14.10.16 01:37:04: Y , -35,  0.0
14.10.16 01:37:15: Y , -35,  0.0
14.10.16 01:37:25: Y , -35,  0.0
14.10.16 01:37:36: Y , -36,  0.0
14.10.16 01:37:46: Y , -35,  0.0
14.10.16 01:37:57: Y , -35,  0.0
14.10.16 01:38:07: Y , -35,  0.0
14.10.16 01:38:18: Y , -35,  0.0
14.10.16 01:38:28: Y , -35,  0.0
14.10.16 01:38:39: Y , -35,  0.0
14.10.16 01:38:49: Y , -35,  0.0
14.10.16 01:39:00: Y , -35,  0.0
14.10.16 01:39:10: Y , -35,  0.0
14.10.16 01:39:21: Y , -33,  0.0
14.10.16 01:39:32: Y , -33,  0.0
14.10.16 01:39:42: Y , -33,  0.0
14.10.16 01:39:53: Y , -33,  0.0
14.10.16 01:40:03: Y , -35,  0.0
14.10.16 01:40:14: Y , -33,  0.0
14.10.16 01:40:24: Y , -33,  0.0
14.10.16 01:40:35: Y , -32,  0.0
14.10.16 01:40:56: Y , -32,  0.0
14.10.16 01:41:06: Y , -32,  0.0
14.10.16 01:41:17: Y , -32,  0.0
14.10.16 01:41:28: Y , -31,  0.0
14.10.16 01:41:38: Y , -32,  0.0
14.10.16 01:41:49: Y , -31,  0.0
14.10.16 01:41:59: Y , -31,  0.0
14.10.16 01:42:10: Y , -29,  0.0
14.10.16 01:42:20: Y , -29,  0.0
14.10.16 01:42:31: Y , -28,  0.0
14.10.16 01:42:41: Y , -27,  0.0
14.10.16 01:42:52: Y , -27,  0.0
14.10.16 01:43:02: Y , -25,  0.0
14.10.16 01:43:13: Y , -25,  0.0
14.10.16 01:43:23: Y , -24,  0.0
14.10.16 01:43:34: Y , -24,  0.0
14.10.16 01:43:44: Y , -23,  0.0
14.10.16 01:43:55: Y , -23,  0.0
14.10.16 01:44:06: Y , -23,  0.0
14.10.16 01:44:16: Y , -23,  0.0
14.10.16 01:44:27: Y , -21,  0.0
14.10.16 01:44:37: Y , -23,  0.0
14.10.16 01:44:48: Y , -21,  0.0
14.10.16 01:44:58: Y , -21,  0.0
14.10.16 01:45:09: Y , -20,  0.0
14.10.16 01:45:19: Y , -20,  0.0
14.10.16 01:45:30: Y , -20,  0.0
14.10.16 01:45:40: Y , -19,  0.0
14.10.16 01:45:51: Y , -19,  0.0
14.10.16 01:46:01: Y , -17,  0.0
14.10.16 01:46:12: Y , -16,  0.0
14.10.16 01:46:23: Y , -17,  0.0
14.10.16 01:46:33: Y , -16,  0.0
14.10.16 01:46:44: Y , -16,  0.0
14.10.16 01:46:54: Y , -15,  0.0
14.10.16 01:47:05: Y , -13,  0.0
14.10.16 01:47:15: Y , -13,  0.0
14.10.16 01:47:26: Y , -13,  0.0
14.10.16 01:47:36: Y , -16,  0.0
14.10.16 01:47:47: Y , -16,  0.0
14.10.16 01:47:57: Y , -16,  0.0
14.10.16 01:48:08: Y , -16,  0.0
14.10.16 01:48:18: Y , -16,  0.0
14.10.16 01:48:29: Y , -15,  0.0
14.10.16 01:48:39: Y , -13,  0.0
14.10.16 01:48:50: Y , -13,  0.0
14.10.16 01:49:01: Y , -12,  0.0
14.10.16 01:49:11: Y , -12,  0.0
14.10.16 01:49:22: Y , -11,  0.0
14.10.16 01:49:32: Y , -10,  0.0
14.10.16 01:49:43: Y , -10,  0.0
14.10.16 01:49:53: Y , -8,  0.0
14.10.16 01:50:04: Y , -8,  0.0
14.10.16 01:50:14: Y , -7,  0.0
14.10.16 01:50:25: Y , -7,  0.0
14.10.16 01:50:35: Y , -6,  0.0
14.10.16 01:50:46: Y , -6,  0.0
14.10.16 01:50:56: Y , -4,  0.0
14.10.16 01:51:07: Y , -3,  0.0
14.10.16 01:51:18: Y , -2,  0.0
14.10.16 01:51:28: Y , -2,  0.0
14.10.16 01:51:39: Y , 0,  0.0
14.10.16 01:51:49: Y , 0,  0.0
14.10.16 01:52:00: Y , 2,  0.0
14.10.16 01:52:10: Y , 4,  0.0
14.10.16 01:52:21: Y , 6,  0.0
14.10.16 01:52:31: Y , 6,  0.0
14.10.16 01:52:42: Y , 6,  0.0
14.10.16 01:52:52: Y , 6,  0.0
14.10.16 01:53:03: Y , 8,  0.0
14.10.16 01:53:13: Y , 8,  0.0
14.10.16 01:53:24: Y , 9,  0.0
14.10.16 01:53:34: Y , 10,  0.0
14.10.16 01:53:45: Y , 10,  0.0
14.10.16 01:53:56: Y , 12,  0.0
14.10.16 01:54:06: Y , 13,  0.0
14.10.16 01:54:17: Y , 13,  0.0
14.10.16 01:54:27: Y , 13,  0.0
14.10.16 01:54:38: Y , 14,  0.0
14.10.16 01:54:48: Y , 16,  0.0
14.10.16 01:54:59: Y , 16,  0.0
14.10.16 01:55:09: Y , 16,  0.0
14.10.16 01:55:20: Y , 17,  0.0
14.10.16 01:55:30: Y , 18,  0.0
14.10.16 01:55:41: Y , 18,  0.0
14.10.16 01:55:51: Y , 18,  0.0
14.10.16 01:56:02: Y , 19,  0.0
14.10.16 01:56:13: Y , 21,  0.0
14.10.16 01:56:23: Y , 21,  0.0
14.10.16 01:56:34: Y , 21,  0.0
14.10.16 01:56:44: Y , 21,  0.0
14.10.16 01:56:55: Y , 22,  0.0
14.10.16 01:57:05: Y , 22,  0.0
14.10.16 01:57:16: Y , 22,  0.0
14.10.16 01:57:26: Y , 22,  0.0
14.10.16 01:57:37: Y , 23,  0.0
14.10.16 01:57:58: Y , 23,  0.0
14.10.16 01:58:08: Y , 23,  0.0
14.10.16 01:58:19: Y , 25,  0.0
14.10.16 01:58:30: Y , 26,  0.0
14.10.16 01:58:40: Y , 26,  0.0
14.10.16 01:58:51: Y , 27,  0.0
14.10.16 01:59:01: Y , 27,  0.0
14.10.16 01:59:12: Y , 29,  0.0
14.10.16 01:59:22: Y , 29,  0.0
14.10.16 01:59:33: Y , 30,  0.0
14.10.16 01:59:43: Y , 30,  0.0
14.10.16 01:59:54: Y , 31,  0.0
14.10.16 02:00:04: Y , 31,  0.0
14.10.16 02:00:15: Y , 33,  0.0
14.10.16 02:00:25: Y , 33,  0.0
14.10.16 02:00:36: Y , 34,  0.0
14.10.16 02:00:47: Y , 34,  0.0
14.10.16 02:00:57: Y , 35,  0.0
14.10.16 02:01:08: Y , 35,  0.0
14.10.16 02:01:18: Y , 37,  0.0
14.10.16 02:01:29: Y , 37,  0.0
14.10.16 02:01:39: Y , 38,  0.0
14.10.16 02:01:50: Y , 38,  0.0
14.10.16 02:02:00: Y , 38,  0.0
14.10.16 02:02:11: Y , 39,  0.0
14.10.16 02:02:21: Y , 41,  0.0
14.10.16 02:02:32: Y , 41,  0.0
14.10.16 02:02:42: Y , 41,  0.0
14.10.16 02:02:53: Y , 42,  0.0
14.10.16 02:03:03: Y , 43,  0.0
14.10.16 02:03:14: Y , 43,  0.0
14.10.16 02:03:25: Y , 43,  0.0
14.10.16 02:03:35: Y , 43,  0.0
14.10.16 02:03:46: Y , 45,  0.0
14.10.16 02:03:56: Y , 45,  0.0
14.10.16 02:04:07: Y , 46,  0.0
14.10.16 02:04:17: Y , 47,  0.0
14.10.16 02:04:28: Y , 47,  0.0
14.10.16 02:04:38: Y , 47,  0.0
14.10.16 02:04:49: Y , 47,  0.0
14.10.16 02:04:59: Y , 47,  0.0
14.10.16 02:05:10: Y , 47,  0.0
14.10.16 02:05:20: Y , 47,  0.0
14.10.16 02:05:31: Y , 48,  0.0
14.10.16 02:05:42: Y , 48,  0.0
14.10.16 02:05:52: Y , 48,  0.0
14.10.16 02:06:03: Y , 50,  0.0
14.10.16 02:06:13: Y , 50,  0.0
14.10.16 02:06:24: Y , 51,  0.0
14.10.16 02:06:34: Y , 52,  0.0
14.10.16 02:06:45: Y , 54,  0.0
14.10.16 02:06:55: Y , 54,  0.0
14.10.16 02:07:06: Y , 54,  0.0
14.10.16 02:07:16: Y , 54,  0.0
14.10.16 02:07:27: Y , 54,  0.0
14.10.16 02:07:37: Y , 54,  0.0